This is the latest recevied weather packets stored in our database for station/object W2OBX. If no packets are shown the sender has not sent any weather packets the latest 1 day(s).
| Time | Temp. | Humidity | Pressure | Rain* | Wind** | Luminosity | Snow |
|---|---|---|---|---|---|---|---|
| 1778009819 | 25.56° C | 45% | 1013.1 hPa | 0 mm | 0.45 m/s, 113° | 297 W/m² | - |
| 1778009517 | 25° C | 45% | 1013.2 hPa | 0 mm | 0 m/s | 218 W/m² | - |
| 1778009215 | 25° C | 44% | 1013.3 hPa | 0 mm | 0.45 m/s, 101° | 196 W/m² | - |
| 1778008912 | 25° C | 44% | 1013.4 hPa | 0 mm | 0 m/s | 186 W/m² | - |
| 1778008610 | 24.44° C | 45% | 1013.5 hPa | 0 mm | 0.45 m/s, 104° | 322 W/m² | - |
| 1778008308 | 24.44° C | 44% | 1013.6 hPa | 0 mm | 0.45 m/s, 128° | 160 W/m² | - |
| 1778008004 | 24.44° C | 45% | 1013.7 hPa | 0 mm | 0.45 m/s, 119° | 232 W/m² | - |
| 1778007704 | 24.44° C | 45% | 1013.7 hPa | 0 mm | 0.45 m/s, 101° | 231 W/m² | - |
| 1778007401 | 25° C | 43% | 1013.7 hPa | 0 mm | 0.45 m/s, 122° | 170 W/m² | - |
| 1778007097 | 25° C | 44% | 1013.8 hPa | 0 mm | 0.45 m/s, 130° | 185 W/m² | - |
| 1778006794 | 24.44° C | 42% | 1013.8 hPa | 0 mm | 0 m/s | 216 W/m² | - |
| 1778006491 | 25° C | 40% | 1014 hPa | 0 mm | 0.45 m/s, 138° | 318 W/m² | - |
| 1778006188 | 25° C | 42% | 1014 hPa | 0 mm | 0.45 m/s, 126° | 177 W/m² | - |
| 1778005886 | 24.44° C | 45% | 1014.2 hPa | 0 mm | 0.45 m/s, 128° | 443 W/m² | - |
| 1778005581 | 24.44° C | 43% | 1014.2 hPa | 0 mm | 0.45 m/s, 106° | 275 W/m² | - |
| 1778005278 | 23.89° C | 45% | 1014.3 hPa | 0 mm | 0 m/s | 313 W/m² | - |
| 1778004975 | 23.89° C | 46% | 1014.6 hPa | 0 mm | 0 m/s | 313 W/m² | - |
| 1778004672 | 23.89° C | 47% | 1014.5 hPa | 0 mm | 0.45 m/s, 115° | 231 W/m² | - |
| 1778004368 | 23.89° C | 44% | 1014.4 hPa | 0 mm | 0.45 m/s, 107° | 178 W/m² | - |
| 1778004066 | 24.44° C | 44% | 1014.5 hPa | 0 mm | 0 m/s | 173 W/m² | - |
| 1778003761 | 23.89° C | 43% | 1014.5 hPa | 0 mm | 0.45 m/s, 106° | 172 W/m² | - |
| 1778003458 | 23.89° C | 43% | 1014.5 hPa | 0 mm | 0.89 m/s, 132° | 200 W/m² | - |
| 1778003155 | 24.44° C | 45% | 1014.5 hPa | 0 mm | 0 m/s | 215 W/m² | - |
| 1778002851 | 23.89° C | 46% | 1014.6 hPa | 0 mm | 0 m/s | 215 W/m² | - |
| 1778002548 | 23.89° C | 43% | 1014.7 hPa | 0 mm | 0.45 m/s, 120° | 155 W/m² | - |
* Rain latest hour (hover to see other rain measurements)
** Current wind speed in m/s (hover to see current wind gust speed)